Previsão horária em Cerkawizna

Hoje, 29 Julho, Quinta-feira

Tempo Temperatura Precipitação Vento Pressão Humidade
00:00 +19°C° 0.2 mm 3 m/s 739 mmHg 93%
01:00 +19°C° 0 mm 3 m/s 739 mmHg 91%
02:00 +19°C° 0 mm 3 m/s 739 mmHg 91%
03:00 +18°C° 0 mm 3 m/s 739 mmHg 90%
04:00 +18°C° 0 mm 3 m/s 739 mmHg 89%
05:00 +19°C° 0 mm 3 m/s 739 mmHg 85%
06:00 +20°C° 0 mm 4 m/s 740 mmHg 80%
07:00 +20°C° 0 mm 4 m/s 740 mmHg 76%
08:00 +22°C° 0 mm 4 m/s 740 mmHg 69%
09:00 +23°C° 0 mm 4 m/s 740 mmHg 62%
10:00 +26°C° 0 mm 4 m/s 740 mmHg 54%
11:00 +27°C° 0 mm 5 m/s 740 mmHg 50%
12:00 +27°C° 0 mm 5 m/s 739 mmHg 46%
13:00 +28°C° 0 mm 5 m/s 739 mmHg 42%
14:00 +28°C° 0 mm 5 m/s 739 mmHg 44%
15:00 +27°C° 0 mm 4 m/s 739 mmHg 45%
16:00 +27°C° 0 mm 4 m/s 739 mmHg 46%
17:00 +26°C° 0 mm 4 m/s 739 mmHg 50%
18:00 +25°C° 0 mm 3 m/s 739 mmHg 53%
19:00 +24°C° 0 mm 2 m/s 739 mmHg 56%
20:00 +23°C° 0 mm 2 m/s 739 mmHg 57%
21:00 +21°C° 0 mm 2 m/s 739 mmHg 58%
22:00 +20°C° 0 mm 2 m/s 739 mmHg 59%
23:00 +20°C° 0 mm 2 m/s 739 mmHg 62%

Amanhã, 30 Julho, Sexta-feira

Tempo Temperatura Precipitação Vento Pressão Humidade
00:00 +20°C° 0 mm 1 m/s 739 mmHg 64%
01:00 +19°C° 0 mm 1 m/s 740 mmHg 67%
02:00 +19°C° 0 mm 1 m/s 739 mmHg 69%
03:00 +18°C° 0 mm 1 m/s 739 mmHg 71%
04:00 +18°C° 0 mm 1 m/s 739 mmHg 73%
05:00 +19°C° 0 mm 1 m/s 739 mmHg 70%
06:00 +19°C° 0 mm 2 m/s 739 mmHg 66%
07:00 +20°C° 0 mm 2 m/s 739 mmHg 63%
08:00 +22°C° 0 mm 3 m/s 739 mmHg 57%
09:00 +25°C° 0 mm 4 m/s 739 mmHg 51%
10:00 +26°C° 0 mm 5 m/s 739 mmHg 45%
11:00 +27°C° 0 mm 5 m/s 739 mmHg 43%
12:00 +28°C° 0 mm 6 m/s 738 mmHg 41%
13:00 +29°C° 0 mm 6 m/s 738 mmHg 39%
14:00 +29°C° 0 mm 6 m/s 738 mmHg 39%
15:00 +29°C° 0 mm 6 m/s 737 mmHg 38%
16:00 +29°C° 0 mm 5 m/s 737 mmHg 38%
17:00 +28°C° 0 mm 4 m/s 737 mmHg 44%
18:00 +26°C° 0 mm 3 m/s 737 mmHg 49%
19:00 +24°C° 0 mm 2 m/s 737 mmHg 55%
20:00 +23°C° 0 mm 1 m/s 737 mmHg 56%
21:00 +22°C° 0 mm 1 m/s 737 mmHg 57%
22:00 +21°C° 0 mm 1 m/s 737 mmHg 58%
23:00 +21°C° 0 mm 1 m/s 737 mmHg 59%

Depois de amanhã, 31 Julho, Sábado

Tempo Temperatura Precipitação Vento Pressão Humidade
00:00 +21°C° 0 mm 1 m/s 737 mmHg 60%
01:00 +20°C° 0 mm 1 m/s 737 mmHg 61%
02:00 +20°C° 0 mm 1 m/s 736 mmHg 63%
03:00 +20°C° 0 mm 1 m/s 736 mmHg 64%
04:00 +20°C° 0 mm 1 m/s 736 mmHg 65%
05:00 +20°C° 0 mm 2 m/s 736 mmHg 63%
06:00 +23°C° 0 mm 2 m/s 736 mmHg 61%
07:00 +24°C° 0 mm 2 m/s 736 mmHg 59%
08:00 +25°C° 0 mm 3 m/s 736 mmHg 61%
09:00 +25°C° 0 mm 4 m/s 736 mmHg 63%
10:00 +24°C° 0 mm 6 m/s 737 mmHg 64%
11:00 +22°C° 1.2 mm 5 m/s 737 mmHg 73%
12:00 +21°C° 1.2 mm 4 m/s 737 mmHg 83%
13:00 +19°C° 1.2 mm 3 m/s 737 mmHg 92%
14:00 +20°C° 0.8 mm 3 m/s 737 mmHg 87%
15:00 +20°C° 0.8 mm 4 m/s 736 mmHg 82%
16:00 +21°C° 0.8 mm 5 m/s 736 mmHg 78%
17:00 +21°C° 0 mm 4 m/s 736 mmHg 80%
18:00 +21°C° 0 mm 3 m/s 736 mmHg 82%
19:00 +20°C° 0 mm 3 m/s 736 mmHg 84%
20:00 +20°C° 0 mm 3 m/s 736 mmHg 84%
21:00 +19°C° 0 mm 3 m/s 737 mmHg 84%
22:00 +18°C° 0 mm 3 m/s 737 mmHg 84%
23:00 +18°C° 0 mm 2 m/s 737 mmHg 82%

1 Agosto, Domingo

Tempo Temperatura Precipitação Vento Pressão Humidade
00:00 +17°C° 0 mm 2 m/s 737 mmHg 80%
01:00 +17°C° 0 mm 2 m/s 737 mmHg 77%
02:00 +16°C° 0 mm 2 m/s 737 mmHg 77%
03:00 +16°C° 0 mm 1 m/s 737 mmHg 76%
04:00 +16°C° 0 mm 1 m/s 737 mmHg 75%
05:00 +18°C° 0 mm 1 m/s 737 mmHg 70%
06:00 +19°C° 0 mm 1 m/s 737 mmHg 65%
07:00 +21°C° 0 mm 1 m/s 737 mmHg 60%
08:00 +22°C° 0 mm 1 m/s 737 mmHg 58%
09:00 +23°C° 0 mm 1 m/s 737 mmHg 55%
10:00 +21°C° 0 mm 0 m/s 737 mmHg 53%
11:00 +23°C° 0.1 mm 1 m/s 737 mmHg 56%
12:00 +23°C° 0.1 mm 2 m/s 737 mmHg 60%
13:00 +21°C° 0.1 mm 3 m/s 737 mmHg 63%
14:00 +20°C° 0.8 mm 4 m/s 736 mmHg 69%
15:00 +19°C° 0.8 mm 4 m/s 736 mmHg 75%
16:00 +17°C° 0.8 mm 5 m/s 736 mmHg 81%
17:00 +18°C° 0.8 mm 4 m/s 736 mmHg 82%
18:00 +18°C° 0.8 mm 4 m/s 735 mmHg 84%
19:00 +17°C° 0.8 mm 3 m/s 735 mmHg 85%
20:00 +17°C° 1.7 mm 3 m/s 735 mmHg 88%
21:00 +16°C° 1.7 mm 3 m/s 735 mmHg 90%
22:00 +16°C° 1.7 mm 3 m/s 735 mmHg 93%
23:00 +14°C° 2.1 mm 3 m/s 736 mmHg 94%

2 Agosto, Segunda-feira

Tempo Temperatura Precipitação Vento Pressão Humidade
00:00 +14°C° 2.1 mm 4 m/s 736 mmHg 95%
01:00 +14°C° 2.1 mm 4 m/s 736 mmHg 96%
02:00 +14°C° 1.2 mm 4 m/s 736 mmHg 96%
03:00 +14°C° 1.2 mm 4 m/s 736 mmHg 96%
04:00 +14°C° 1.2 mm 4 m/s 736 mmHg 95%
05:00 +14°C° 1.6 mm 5 m/s 736 mmHg 95%
06:00 +14°C° 1.6 mm 5 m/s 737 mmHg 95%
07:00 +14°C° 1.6 mm 5 m/s 737 mmHg 94%
08:00 +14°C° 1.2 mm 4 m/s 738 mmHg 93%
09:00 +14°C° 1.2 mm 4 m/s 738 mmHg 92%
10:00 +14°C° 1.2 mm 3 m/s 739 mmHg 92%
11:00 +16°C° 0.2 mm 2 m/s 739 mmHg 83%
12:00 +19°C° 0.2 mm 1 m/s 739 mmHg 74%
13:00 +20°C° 0.2 mm 1 m/s 740 mmHg 66%
14:00 +21°C° 0.1 mm 1 m/s 740 mmHg 63%
15:00 +21°C° 0.1 mm 2 m/s 740 mmHg 60%
16:00 +21°C° 0.1 mm 3 m/s 740 mmHg 57%
17:00 +20°C° 0.1 mm 3 m/s 739 mmHg 62%
18:00 +19°C° 0.1 mm 3 m/s 739 mmHg 67%
19:00 +18°C° 0.1 mm 2 m/s 739 mmHg 72%
20:00 +18°C° 0 mm 2 m/s 739 mmHg 76%
21:00 +17°C° 0 mm 2 m/s 739 mmHg 79%
22:00 +16°C° 0 mm 2 m/s 740 mmHg 83%
23:00 +16°C° 0.1 mm 2 m/s 740 mmHg 86%

3 Agosto, Terça-feira

Tempo Temperatura Precipitação Vento Pressão Humidade
00:00 +15°C° 0.1 mm 2 m/s 740 mmHg 88%
01:00 +14°C° 0.1 mm 3 m/s 740 mmHg 91%
02:00 +14°C° 0 mm 3 m/s 740 mmHg 92%
03:00 +13°C° 0 mm 3 m/s 740 mmHg 93%
04:00 +13°C° 0 mm 3 m/s 740 mmHg 95%
05:00 +14°C° 0 mm 3 m/s 741 mmHg 91%
06:00 +16°C° 0 mm 3 m/s 741 mmHg 87%
07:00 +17°C° 0 mm 3 m/s 741 mmHg 84%
08:00 +18°C° 0.1 mm 3 m/s 741 mmHg 77%
09:00 +20°C° 0.1 mm 3 m/s 742 mmHg 70%
10:00 +21°C° 0.1 mm 3 m/s 742 mmHg 63%
11:00 +22°C° 0.2 mm 3 m/s 742 mmHg 59%
12:00 +22°C° 0.2 mm 3 m/s 741 mmHg 56%
13:00 +24°C° 0.2 mm 3 m/s 741 mmHg 53%
14:00 +24°C° 0 mm 3 m/s 741 mmHg 55%
15:00 +23°C° 0 mm 2 m/s 741 mmHg 57%
16:00 +23°C° 0 mm 1 m/s 740 mmHg 59%
17:00 +22°C° 0 mm 1 m/s 740 mmHg 62%
18:00 +21°C° 0 mm 2 m/s 740 mmHg 64%
19:00 +20°C° 0 mm 2 m/s 740 mmHg 67%
20:00 +19°C° 0 mm 2 m/s 740 mmHg 69%
21:00 +19°C° 0 mm 2 m/s 740 mmHg 71%
22:00 +18°C° 0 mm 2 m/s 741 mmHg 73%
23:00 +18°C° 0 mm 2 m/s 740 mmHg 76%
Mostrar mais

Necessitamos do seu Consentimento

A Meteoprog e os seus Fornecedores de Serviços podem armazenar e aceder a dados pessoais como cookies, identificadores do dispositivo ou outras tecnologias semelhantes existentes no seu dispositivo e processar estes dados para personalizar conteúdos e anúncios, assim como funcionalidades nas redes sociais e análise de tráfego.

  • Armazenar e/ou aceder a informações no seu dispositivo

    Os cookies, identificadores do dispositivo ou outras informações podem ser armazenados ou acedidos no seu dispositivo, para os fins acima indicados.

  • Anúncios e conteúdos personalizados, medição de anúncios e conteúdos, dados sobre o público-alvo e desenvolvimento de produtos

    Os anúncios e os conteúdos podem ser personalizados com base num perfil. Podem ser adicionados dados adicionais para uma maior personalização dos anúncios e dos conteúdos. A eficácia dos anúncios e dos conteúdos pode ser medida. Podem ser obtidas informações sobre o público que visualizou os anúncios e os conteúdos. Estes dados podem ser usados para desenvolver ou melhorar sistemas, softwares ou a experiência do utilizador.

Ao clicar em "Eu concordo”, permitirá o uso de cookies, identificadores do dispositivo e web beacons mencionados ou outras tecnologias semelhantes. As configurações do navegador do seu dispositivo podem ser alteradas.

Para certos fins, podem ser invocados interesses legítimos ao invés de consentimento. Pode ler mais informação sobre este assunto na nossa Política de Privacidade e Cookies.